Theta_e
321 321 321 321 321 321 321 321 321 322 322 323 323 323 323 322 322 323 323 323 323 323 323 323 323 323 323 323 323 323 321 318 320 320 322 325 335 354 358 357 355 354 359 342 336 332 327 329 329 333 329 326 327 325 329 327 325 322 314 312 310 312 313 317 315 319 321 319 322 324 324 322 319 324 326 332 330 328 327 327 332 337 338 339 343 345 346 346
320 320 321 321 321 321 321 321 321 322 322 322 322 322 323 323 323 322 322 322 322 323 323 323 323 323 323 322 323 323 320 319 319 320 319 330 348 350 351 356 357 359 357 333 328 326 323 324 328 328 325 322 330 324 329 323 325 318 314 311 307 315 317 321 321 322 321 321 323 324 325 326 326 328 329 325 325 325 327 330 333 332 336 339 341 344 344 344
320 320 320 320 320 320 321 321 321 321 322 322 322 322 322 322 322 322 322 322 322 322 322 322 323 322 323 323 323 322 319 321 322 320 324 345 344 350 355 358 356 361 336 326 327 326 324 325 327 324 323 321 324 318 323 318 321 317 312 309 312 318 320 327 323 323 325 325 324 324 326 328 328 329 333 326 325 328 326 326 330 330 331 335 339 341 342 343
320 320 320 320 320 320 320 320 320 321 321 321 321 321 322 322 321 321 321 321 322 323 322 322 322 322 322 323 323 321 320 322 315 321 325 347 348 346 353 356 357 356 338 329 327 325 325 325 325 324 321 320 321 322 316 317 313 316 313 310 312 316 318 322 324 324 324 327 325 323 326 327 328 329 330 327 325 326 328 331 330 330 332 335 338 340 343 343
319 319 319 319 319 320 320 320 320 320 320 321 320 321 321 321 321 321 321 321 322 323 322 322 322 322 323 322 321 321 320 308 311 334 352 354 351 349 350 353 358 344 337 330 327 325 324 324 325 322 319 315 319 318 315 317 318 319 312 315 317 318 316 321 324 325 324 324 323 324 323 325 329 328 328 328 323 321 328 332 334 334 335 336 337 340 342 342
319 319 318 319 319 319 320 320 320 320 320 320 320 320 320 320 320 320 320 320 322 323 322 323 323 323 324 322 321 320 315 300 318 329 366 356 353 351 351 353 358 337 332 329 325 324 323 324 323 316 314 316 317 314 314 317 318 309 317 317 320 321 318 321 324 323 323 323 324 324 326 329 327 325 328 329 333 328 334 334 335 336 337 338 339 340 339 340
318 318 318 318 319 319 319 319 319 319 319 319 320 320 319 320 319 318 319 320 322 323 324 323 323 324 324 322 320 319 317 314 320 337 362 358 353 352 355 357 362 338 328 325 324 321 323 323 321 316 315 316 318 317 317 315 319 316 312 316 318 321 319 320 321 324 325 324 324 328 329 327 328 324 330 328 330 333 334 336 336 337 337 337 337 338 338 338
317 318 318 318 318 318 318 318 318 318 319 319 319 320 319 319 319 319 319 320 322 324 324 323 323 324 324 320 320 317 318 312 319 333 360 358 350 357 356 342 334 332 328 324 323 321 323 321 317 318 314 313 318 317 317 315 316 314 313 317 319 321 321 320 321 320 322 326 327 328 326 326 329 328 330 328 332 334 334 336 336 336 335 335 336 336 337 337
317 317 317 318 318 318 318 318 318 318 318 318 319 318 318 318 318 318 319 320 323 324 324 324 323 324 323 319 315 307 308 321 326 347 355 338 338 340 336 328 331 325 324 324 325 324 322 319 319 317 312 315 319 314 313 311 312 318 318 320 319 319 320 320 320 321 325 326 326 324 324 327 329 332 329 330 331 334 335 334 334 334 333 332 334 335 336 336
316 317 317 317 317 317 317 318 318 318 318 319 318 318 318 318 318 318 319 320 323 325 324 323 325 323 319 320 318 303 314 323 330 343 338 331 332 327 324 321 326 323 319 320 322 323 321 321 318 319 318 318 320 314 314 313 314 320 319 319 319 319 319 320 322 324 325 324 325 322 322 324 328 327 320 330 332 333 333 332 333 332 331 333 334 335 336 337
316 317 317 317 317 317 317 318 318 318 318 318 318 317 317 317 317 318 319 320 323 325 324 324 324 322 319 321 308 305 321 332 333 335 331 330 327 322 319 320 323 320 319 319 319 322 323 323 324 322 321 317 315 314 315 316 320 318 319 319 319 320 321 320 320 322 324 322 324 323 321 324 327 327 322 328 331 333 330 330 331 331 331 332 334 335 337 338
316 316 316 316 316 317 317 317 317 317 317 317 317 316 317 317 317 318 319 321 323 325 324 324 323 321 320 317 313 311 322 326 332 331 328 326 323 322 320 322 322 320 318 317 319 321 323 324 324 319 311 320 309 315 311 320 319 318 319 314 316 319 317 319 317 320 323 320 325 325 321 320 323 321 326 329 332 332 331 330 330 330 332 333 334 335 335 340
316 316 316 316 316 316 317 317 317 317 317 316 316 316 316 316 317 318 319 321 325 325 325 324 324 322 321 312 317 323 325 325 326 329 324 323 321 321 323 324 323 321 320 319 319 322 324 323 322 317 318 315 313 307 316 319 319 320 318 314 313 315 313 319 321 321 320 323 326 324 308 311 319 324 327 330 330 331 329 328 330 330 333 334 334 334 335 339
316 316 316 316 316 316 316 316 316 316 316 316 315 315 315 315 317 319 320 321 326 326 324 325 323 323 323 317 323 327 327 324 323 323 322 322 318 319 322 323 323 322 322 321 322 322 322 322 320 320 323 317 312 320 317 318 320 311 315 314 308 308 308 319 320 319 319 323 324 323 309 312 319 324 328 330 331 329 326 328 329 331 334 335 334 334 336 335
315 315 316 315 315 316 316 316 315 315 315 315 315 315 314 314 317 320 322 323 326 327 326 326 323 321 319 320 328 328 353 341 325 322 326 322 317 316 318 320 321 323 322 322 321 322 322 321 320 318 314 321 319 314 310 313 314 312 308 304 311 309 310 318 321 319 316 320 323 320 310 313 319 323 328 330 330 329 326 328 329 331 334 334 333 333 336 335
314 315 315 315 315 315 315 315 315 315 315 314 313 314 316 317 319 321 323 324 327 327 326 322 322 321 317 313 323 352 337 324 323 328 326 327 320 315 317 317 319 320 321 320 322 322 321 318 315 316 317 318 313 308 306 307 309 312 308 308 308 310 310 314 316 319 322 321 321 321 311 316 317 323 327 329 330 329 327 328 329 331 333 332 332 333 335 335
314 314 314 315 315 315 315 314 314 314 313 313 313 314 316 318 320 323 324 327 327 327 324 318 325 321 312 325 333 322 320 321 323 324 326 327 322 318 316 315 315 317 319 319 320 319 318 314 319 318 318 311 310 309 304 303 303 307 310 307 311 309 311 309 315 319 321 320 315 318 316 317 319 322 325 328 330 329 327 328 329 330 330 331 332 333 334 335
314 314 314 314 315 315 315 313 314 314 313 312 312 313 312 318 320 320 322 321 326 327 323 325 321 319 316 325 317 320 324 322 321 321 323 326 324 319 315 314 315 316 316 315 317 313 316 311 315 308 311 310 309 305 301 299 302 304 305 306 309 311 312 314 311 316 319 320 316 315 317 318 320 322 323 326 330 329 327 327 328 329 331 332 332 333 335 336
314 314 314 314 314 314 314 313 313 313 312 313 313 316 321 322 319 320 324 323 321 321 312 315 316 302 304 319 324 324 325 324 321 320 320 323 324 321 317 316 316 314 310 308 310 312 314 312 315 310 305 306 306 306 304 309 310 310 309 308 310 308 310 311 316 319 319 315 314 313 313 316 320 321 323 324 328 327 325 327 329 330 332 333 333 335 336 337
314 314 313 314 314 314 313 313 313 312 311 309 309 312 321 321 320 322 323 325 320 320 317 318 321 318 318 319 320 324 328 321 316 319 321 324 322 319 315 315 314 314 310 304 307 310 317 305 303 304 306 308 310 310 310 314 314 314 312 310 310 310 312 315 318 320 321 316 312 314 315 317 319 320 322 323 325 324 325 327 327 329 331 333 333 334 336 338
314 313 314 313 313 313 313 312 312 311 311 308 308 311 306 307 304 305 313 318 324 325 323 322 321 317 316 322 324 321 317 315 318 318 320 325 322 316 312 312 310 306 306 309 307 313 313 305 305 309 311 311 311 311 311 311 313 313 311 310 308 311 308 315 316 319 319 315 312 315 314 316 317 319 321 323 323 322 323 326 326 329 332 332 332 333 336 338
314 313 313 313 313 312 312 312 311 311 310 308 311 310 312 313 314 316 314 308 314 321 324 325 326 322 325 324 326 325 319 313 315 317 321 321 317 311 310 310 307 303 306 308 307 306 305 304 308 312 313 313 312 311 311 310 309 310 310 310 307 307 313 316 317 319 319 315 312 315 313 314 317 319 321 321 323 323 325 326 326 328 329 329 330 334 336 335
313 313 313 313 312 312 311 311 310 310 309 313 314 317 317 322 323 324 318 311 311 318 318 318 316 317 318 322 324 325 314 313 311 315 317 318 313 312 309 306 305 305 306 307 302 303 302 306 311 314 313 311 310 310 309 309 310 307 306 305 304 309 311 305 314 318 318 314 312 315 312 313 317 318 320 322 322 323 325 327 327 328 327 327 331 336 335 333
313 313 313 312 312 311 311 309 308 312 313 318 314 315 322 324 322 321 314 310 309 315 317 319 319 316 316 316 323 321 314 315 315 313 320 316 311 314 308 307 305 305 303 306 306 304 305 310 314 313 312 311 308 309 308 306 304 308 308 306 305 309 312 311 312 316 316 315 318 315 312 311 315 314 316 320 322 322 324 326 326 328 328 330 335 336 336 334
313 313 313 312 310 310 308 308 313 311 312 311 310 315 320 318 321 322 314 309 310 311 322 319 320 319 319 326 324 315 316 317 316 318 319 317 313 312 309 310 306 303 305 308 308 306 308 313 314 312 311 310 308 306 308 307 302 303 308 308 307 310 311 313 314 312 308 307 312 313 301 304 312 315 315 317 318 319 321 321 323 326 327 330 332 334 335 335
313 313 313 311 311 310 308 307 312 308 311 308 309 314 318 319 323 322 313 305 299 309 317 310 320 312 324 318 321 319 318 312 318 319 319 318 320 315 313 306 307 302 306 307 306 306 307 313 313 311 310 309 308 307 308 309 302 301 303 309 309 308 309 313 312 310 302 300 309 316 303 300 310 312 314 320 319 316 319 320 322 324 325 328 330 334 333 333
313 312 312 311 311 309 303 303 307 311 309 308 313 316 320 321 325 319 308 301 298 313 309 315 312 313 321 319 319 319 303 307 320 320 317 320 315 318 308 305 307 309 310 310 305 303 310 311 311 311 310 308 306 305 308 308 304 300 309 309 309 308 307 311 312 309 304 312 311 314 310 304 302 310 316 318 318 319 322 319 321 324 324 326 328 334 334 335
313 312 311 311 309 309 304 305 307 308 311 314 317 317 319 323 323 319 306 294 296 318 310 309 313 322 319 318 320 313 313 315 309 314 318 318 317 313 310 307 305 306 308 308 297 306 310 308 309 309 308 306 303 307 309 310 306 304 309 310 308 309 308 310 311 308 307 306 299 307 312 304 303 310 316 318 314 317 318 320 319 323 324 325 326 331 332 335
312 312 311 310 309 308 310 307 310 310 316 317 317 318 320 321 318 308 301 293 311 312 318 310 319 316 315 317 315 315 314 315 307 313 318 317 317 314 306 308 309 308 310 309 302 306 310 310 311 311 308 304 309 309 310 310 304 308 311 311 310 310 310 308 307 306 306 302 297 303 307 298 300 311 314 316 314 314 317 320 319 323 323 325 326 328 331 334
312 311 311 310 308 309 312 312 309 313 316 317 319 316 315 313 311 300 296 290 315 304 310 310 309 308 312 309 311 313 311 312 313 314 315 311 313 314 313 316 311 309 307 310 308 309 310 316 317 312 309 310 310 311 312 311 310 313 311 308 308 306 305 306 305 304 300 297 298 307 308 305 297 309 313 312 313 317 318 319 320 323 324 325 326 326 331 332
311 310 310 310 304 307 307 303 307 313 316 317 313 313 311 312 302 296 291 301 311 309 312 308 307 312 308 307 305 312 311 311 311 312 309 313 310 311 311 308 312 306 304 306 306 309 310 311 311 312 317 315 313 310 313 312 311 311 306 304 304 303 306 303 305 304 295 291 300 305 304 307 296 304 313 318 319 320 320 319 319 321 322 324 325 326 330 332
309 308 310 307 308 310 303 302 314 313 312 313 313 310 305 298 302 292 294 314 299 304 306 305 310 309 308 310 309 309 308 310 311 310 307 307 306 305 305 301 305 298 298 300 300 307 305 307 310 313 317 312 310 307 306 311 310 308 304 304 300 299 297 294 295 293 292 291 301 304 306 302 300 308 316 318 320 321 322 322 321 321 322 324 326 327 329 332
308 307 308 308 310 307 308 309 310 311 312 312 311 310 303 296 290 298 298 304 300 308 306 312 308 309 309 307 307 310 312 306 311 309 310 309 306 306 309 307 309 305 296 302 301 301 302 309 309 311 311 314 310 304 301 302 305 303 301 300 297 294 294 288 293 295 295 302 303 303 306 299 305 311 319 319 321 324 324 324 324 323 323 324 326 327 328 331
307 307 305 309 311 312 313 314 314 314 314 316 312 304 299 291 292 308 302 303 303 310 310 309 310 309 308 304 308 311 305 310 309 308 310 306 306 302 305 309 310 307 305 304 299 299 294 297 304 308 303 311 310 307 305 303 304 303 306 304 301 299 297 290 293 290 292 294 301 306 301 297 299 302 315 321 324 325 325 324 324 325 325 326 327 328 329 330
306 306 308 310 312 313 315 316 316 317 315 313 305 298 292 292 298 298 300 304 307 309 308 313 309 306 305 307 310 311 309 303 309 307 307 305 302 303 303 305 309 309 307 299 303 302 302 299 306 312 311 312 309 312 312 309 306 306 307 308 304 300 304 295 298 298 299 299 299 303 301 304 304 311 319 321 323 322 324 323 324 324 325 326 326 327 327 330
306 311 314 313 314 317 317 317 317 317 315 310 301 293 291 297 296 303 302 309 308 306 308 311 310 304 303 304 308 308 311 305 307 306 305 306 305 303 307 308 307 309 305 300 304 298 301 298 308 311 312 310 311 313 312 311 298 303 305 299 301 307 306 302 307 306 306 303 297 309 309 312 311 312 315 318 318 319 320 321 323 323 324 325 325 327 327 328
307 310 310 314 316 320 321 320 319 316 313 308 299 292 298 300 304 305 310 306 308 309 307 300 304 303 302 301 303 306 306 307 305 304 300 307 303 306 306 307 310 309 310 306 302 306 298 298 308 308 307 310 313 312 312 312 311 306 300 302 309 311 309 307 297 301 297 292 296 301 298 299 302 298 311 315 315 316 316 317 323 323 324 324 325 326 326 327
305 308 312 314 317 320 322 322 319 315 311 306 298 302 303 300 307 306 309 308 308 308 304 303 304 308 303 302 302 305 306 302 302 304 301 305 301 309 307 306 310 310 311 312 304 304 305 297 304 309 310 312 313 312 309 312 314 305 305 312 304 296 297 305 302 293 295 293 295 297 300 302 302 304 308 308 310 310 312 318 321 321 323 325 327 327 327 331
306 308 309 319 325 323 320 323 319 313 307 300 298 298 302 303 307 307 309 309 309 307 302 304 302 307 307 303 305 306 306 300 303 303 300 302 300 307 307 309 307 311 311 311 307 306 307 298 301 310 309 311 310 308 300 304 310 312 311 307 310 304 301 298 300 300 298 294 296 295 301 298 313 306 309 309 311 312 311 315 318 321 324 328 328 328 329 333
307 304 302 316 323 324 324 322 315 310 304 297 298 298 304 302 305 308 309 308 306 305 304 304 307 305 308 307 307 303 306 305 303 303 304 304 304 309 308 310 307 309 311 311 308 309 303 305 295 304 312 309 301 305 303 303 301 302 304 302 304 305 309 305 305 300 296 293 291 293 294 301 307 317 312 312 313 313 313 313 317 318 321 326 328 329 330 333
308 303 303 316 320 324 324 318 309 304 301 303 303 301 302 302 306 308 310 311 309 311 306 305 305 304 307 307 307 309 305 305 305 302 304 304 305 299 309 309 310 308 311 309 307 307 303 303 298 303 304 302 302 309 309 309 307 304 301 300 301 301 301 296 294 305 303 295 291 293 296 301 314 323 320 317 318 319 319 317 316 316 319 322 324 328 333 333
305 298 303 319 324 325 317 308 307 308 304 301 300 303 301 312 306 306 308 310 310 307 311 308 308 307 307 308 309 307 308 305 305 304 305 303 307 306 309 312 311 311 308 304 304 309 307 314 305 300 302 303 307 310 313 312 311 309 306 303 306 303 304 302 290 296 304 303 305 301 296 299 314 318 316 315 314 315 318 317 316 315 322 324 323 328 334 334
304 303 315 315 313 321 312 306 308 305 302 305 308 307 307 306 305 307 306 309 307 309 308 307 307 308 310 309 310 308 310 307 308 304 306 307 307 309 311 312 312 311 310 305 308 308 327 303 304 304 309 308 310 311 312 313 311 308 307 308 306 303 303 302 302 304 299 302 297 299 298 299 313 324 320 318 317 317 317 315 319 319 321 323 323 326 333 332
303 303 307 314 316 315 310 302 301 302 303 306 305 305 308 306 306 305 305 307 306 307 306 308 310 312 309 313 311 308 313 304 310 309 306 307 306 312 312 311 312 309 308 305 304 309 303 305 303 300 300 299 304 306 306 310 309 304 304 305 307 308 308 306 308 312 301 301 301 296 293 299 316 320 315 315 314 315 314 317 321 320 320 322 322 330 332 334
302 307 308 312 317 310 305 309 306 304 304 303 304 303 304 305 307 307 307 306 309 308 307 306 310 312 311 313 310 310 311 308 305 311 310 310 308 312 312 311 312 309 311 315 330 312 305 308 302 295 291 291 292 292 293 298 302 304 308 306 307 306 305 302 298 304 294 303 305 299 302 305 312 319 315 314 314 316 315 315 321 320 321 325 323 331 337 336
303 298 306 311 312 309 308 313 311 307 305 304 302 303 305 303 307 309 309 307 309 309 308 309 311 312 310 310 308 308 308 311 308 307 310 308 308 310 312 312 312 311 323 335 330 313 307 311 307 301 298 295 298 304 309 310 305 301 304 306 306 308 306 305 303 300 294 297 301 299 306 307 309 313 312 313 314 315 317 318 320 320 321 324 329 334 340 339
306 301 304 298 305 308 307 310 308 308 304 307 299 305 304 304 305 306 310 305 309 308 308 309 310 308 308 308 306 306 308 308 310 310 309 310 313 314 319 313 312 317 337 332 334 312 312 303 309 310 307 305 309 311 308 309 305 305 305 305 306 306 306 305 301 299 304 301 292 303 308 307 306 311 311 312 314 316 319 320 321 318 322 321 325 337 348 342
300 307 304 304 296 295 301 303 307 306 308 307 303 306 303 304 306 303 308 309 309 310 306 312 310 310 309 307 307 304 306 306 309 307 312 314 314 316 314 317 311 320 330 320 328 314 311 304 308 309 309 309 309 307 307 308 308 308 307 307 306 306 305 303 307 308 310 301 296 306 309 309 308 312 313 314 316 315 317 319 319 324 326 324 324 335 341 342
306 303 302 304 296 300 300 301 304 306 308 309 307 305 302 303 304 307 307 309 308 307 310 304 307 309 309 310 308 306 311 304 305 315 318 311 313 312 310 313 315 320 319 312 313 312 309 304 312 306 305 306 306 306 307 306 308 306 306 307 306 306 305 305 305 309 313 310 311 312 311 312 312 313 316 317 318 317 320 321 319 318 326 327 325 327 336 340
301 300 297 301 300 299 302 305 306 306 305 311 306 307 306 303 303 307 310 308 305 307 311 306 307 308 309 309 309 306 308 311 313 316 322 314 311 314 311 317 310 313 312 309 310 315 306 307 310 308 305 309 306 307 307 306 305 303 305 306 307 306 306 306 306 307 309 308 316 314 312 311 314 315 316 321 319 323 319 318 317 322 323 327 327 330 329 334
306 309 305 298 296 300 304 303 303 304 302 306 306 307 307 306 304 307 309 313 311 309 310 307 309 308 309 308 308 309 314 313 314 314 316 314 309 318 311 311 313 309 312 310 309 318 308 306 308 306 302 304 306 305 306 306 305 304 304 305 306 307 305 306 305 310 306 305 308 313 310 310 315 319 320 322 321 319 319 320 320 320 320 321 316 318 319 329
307 310 309 303 296 303 301 303 305 304 300 307 308 309 309 308 308 312 312 314 313 313 312 311 311 308 309 308 308 315 315 315 316 316 316 315 315 314 314 314 314 311 309 309 313 306 306 306 303 302 298 300 306 306 304 304 303 301 302 305 306 306 310 308 309 310 310 313 309 303 305 312 316 321 318 317 318 318 318 320 325 328 328 331 330 330 332 332
Wind_Speed
22 22 22 21 22 22 21 21 21 21 21 20 20 20 20 21 22 22 22 22 23 22 20 18 17 17 16 16 16 15 14 8 8 4 7 16 5 3 3 4 9 10 9 3 2 3 6 8 11 11 8 4 5 6 9 10 6 4 5 4 2 5 7 7 6 8 10 7 8 10 11 11 9 8 7 8 10 10 16 15 13 14 14 17 19 18 17 16
23 23 22 23 22 21 22 24 22 21 21 21 21 20 21 22 22 22 23 23 23 23 21 19 17 15 15 15 14 14 12 6 7 9 17 11 12 18 14 6 8 10 7 2 5 7 8 10 12 10 8 6 7 7 10 3 3 1 2 4 7 13 7 10 10 9 6 8 7 10 10 10 10 7 4 6 9 14 16 15 19 20 18 17 18 20 17 16
24 23 22 22 23 23 23 23 23 22 21 21 21 22 22 21 21 21 22 22 23 23 21 19 16 15 14 13 13 12 9 6 6 12 20 21 20 15 10 10 11 11 7 4 6 9 10 11 10 7 8 8 7 5 8 4 4 5 2 2 7 10 8 1 8 10 3 11 9 10 12 12 9 4 3 10 15 15 15 14 15 18 19 16 16 16 16 16
22 22 23 23 23 23 23 23 21 21 21 22 22 21 21 21 21 21 22 23 22 23 21 18 16 13 13 13 12 11 6 5 5 7 2 5 22 22 13 12 11 12 5 6 8 8 9 13 14 13 8 9 7 9 7 4 2 1 4 2 2 6 14 11 9 9 7 10 10 9 13 14 11 7 5 12 15 13 12 14 19 19 19 18 16 16 15 16
22 23 24 24 22 23 24 23 24 24 23 22 23 22 21 21 21 21 21 21 22 22 20 17 14 12 12 11 11 6 6 4 3 2 3 8 16 19 17 14 13 9 8 4 5 9 11 12 13 11 6 3 6 4 3 3 3 0 3 7 7 6 7 11 13 6 9 9 8 9 10 11 10 10 8 6 8 9 12 14 15 17 18 18 18 16 14 14
22 24 24 23 23 24 23 24 24 23 23 22 23 21 22 22 21 21 21 20 21 21 18 15 12 11 12 10 8 6 1 1 3 5 6 6 13 17 15 14 13 7 4 5 5 6 8 10 11 7 4 4 6 6 1 4 1 4 5 4 5 5 7 7 11 6 7 7 11 11 14 11 7 6 5 9 4 10 16 17 16 16 15 16 15 16 16 15
22 24 23 24 24 24 25 26 24 22 22 22 22 20 22 21 20 20 20 19 19 18 16 12 10 11 11 11 5 2 2 9 11 2 9 10 10 12 11 9 7 4 5 5 8 7 6 11 9 7 8 8 11 7 9 4 0 7 5 5 5 7 9 5 6 8 8 8 12 10 10 13 11 8 4 9 5 16 17 17 17 15 15 14 15 14 15 14
24 24 25 24 24 23 25 23 22 22 21 21 21 22 22 21 21 20 20 19 18 17 13 10 9 9 10 6 2 2 3 9 16 7 7 10 12 10 9 5 7 4 6 9 9 10 9 10 10 8 10 10 6 9 5 6 3 5 5 3 8 8 5 6 9 9 10 11 11 12 11 10 10 7 5 8 12 17 17 16 16 15 14 12 12 13 12 11
24 24 23 23 23 23 23 22 22 22 22 22 21 21 21 21 20 20 19 18 17 15 11 9 8 8 6 3 2 5 9 14 15 6 8 10 10 10 8 5 6 7 5 9 11 9 7 9 11 11 8 10 7 6 4 4 6 5 11 8 6 7 7 7 4 8 12 10 13 14 12 9 8 11 9 8 15 16 16 15 14 14 13 12 11 11 9 8
24 25 23 23 23 24 24 23 23 22 22 22 22 22 21 21 20 19 19 17 16 12 10 8 7 6 5 2 4 2 10 12 7 12 11 9 10 9 8 5 9 7 7 9 10 10 12 10 13 10 11 10 10 3 6 4 5 9 8 9 7 8 8 4 12 11 12 12 13 12 9 9 5 4 8 10 14 16 15 14 13 12 12 11 10 11 9 7
25 23 23 24 24 25 25 25 24 24 23 23 22 22 21 20 20 20 19 17 14 11 8 7 4 4 2 4 3 8 8 2 7 8 11 10 11 9 11 8 10 8 10 10 12 12 11 12 14 10 9 1 4 1 0 7 7 6 12 8 8 5 7 10 10 14 12 11 13 12 12 9 8 5 8 11 12 13 15 14 13 10 10 9 11 9 8 5
24 24 25 24 24 24 26 25 26 24 24 24 23 22 20 21 21 20 19 15 14 10 7 5 4 2 3 4 7 11 7 3 3 6 9 12 9 11 12 10 9 10 10 11 11 10 11 13 14 10 6 2 5 2 3 10 6 10 11 10 6 5 8 8 11 8 9 11 14 11 12 11 7 8 9 12 12 13 13 13 12 12 8 11 10 9 6 4
25 25 25 24 25 26 25 26 25 25 25 24 22 21 22 21 21 22 18 13 9 5 4 5 4 2 3 4 11 19 18 14 7 6 6 7 5 5 7 9 10 11 11 11 10 9 13 13 13 14 12 5 2 2 2 6 8 10 6 8 8 6 7 7 9 11 9 10 17 12 6 5 8 9 9 11 12 14 13 10 11 8 9 10 10 7 5 4
26 25 25 25 25 26 26 26 27 26 26 25 23 22 22 21 22 21 15 11 11 9 5 4 4 1 0 7 7 7 12 14 17 14 8 8 7 7 8 9 9 11 10 12 13 10 10 13 12 10 6 7 2 1 1 1 9 6 5 7 3 6 4 6 6 9 9 10 17 11 8 6 10 9 9 8 12 12 10 10 10 10 11 9 9 6 4 7
25 24 25 25 26 26 26 26 26 26 27 25 25 24 25 23 21 19 13 8 10 9 3 3 5 1 2 9 10 19 21 11 11 14 10 11 7 5 8 8 10 10 11 11 9 10 10 12 6 5 6 7 6 2 2 3 5 5 5 4 3 5 5 9 6 9 7 6 11 7 6 8 10 11 8 7 9 11 9 9 10 11 11 10 8 7 4 7
21 23 24 25 26 26 26 25 26 26 26 26 27 27 26 20 18 15 11 9 7 4 3 2 5 3 5 10 8 5 2 6 11 7 4 7 9 7 8 9 8 9 9 9 9 9 11 5 5 4 7 9 8 2 1 6 3 3 7 4 4 2 2 7 9 6 11 6 5 2 6 10 7 10 11 7 9 11 8 10 9 12 13 10 10 9 5 8
22 23 23 25 26 26 26 25 25 26 27 26 28 29 25 18 12 8 5 5 4 5 4 2 3 6 2 2 10 5 7 9 5 5 6 6 9 8 10 7 8 9 9 10 10 9 7 6 1 4 3 5 6 3 2 2 4 2 5 3 7 6 1 1 9 3 10 6 4 5 9 8 10 12 12 10 9 10 7 9 10 10 9 10 10 8 8 8
22 23 25 25 26 26 26 25 26 26 27 28 25 23 23 24 9 3 4 3 4 5 6 6 6 2 10 9 6 9 8 6 9 8 8 7 9 9 8 7 5 8 7 10 8 9 6 9 4 3 3 6 8 7 8 8 8 8 6 6 7 7 5 4 1 5 9 12 8 2 8 13 13 12 12 11 10 10 7 7 8 9 10 10 11 6 9 8
24 24 25 25 25 26 24 26 26 25 25 28 23 23 15 2 3 4 1 4 3 1 1 4 5 5 4 5 15 8 7 7 7 9 8 9 9 7 8 5 5 6 6 5 3 9 3 3 3 3 7 8 9 8 7 9 11 15 12 9 9 9 11 10 10 7 12 6 7 8 9 14 15 13 12 13 14 11 9 8 7 8 10 8 9 6 8 7
26 23 25 25 25 25 26 26 27 23 22 20 16 12 1 2 1 1 2 4 6 10 12 7 11 10 13 18 9 9 12 9 9 9 8 9 9 9 9 7 6 6 5 7 4 11 2 6 4 7 9 10 11 10 7 10 15 17 13 11 11 12 11 12 16 8 12 4 5 8 8 14 15 13 13 14 14 12 12 10 8 8 9 8 7 7 8 9
24 24 24 25 25 27 26 29 26 24 19 11 10 3 3 5 8 4 3 8 13 13 13 13 13 16 15 14 13 7 9 10 8 9 9 7 9 7 8 8 8 9 7 8 8 4 6 5 8 9 12 14 13 10 10 10 9 15 14 13 11 14 12 14 15 9 11 7 5 7 3 11 13 13 12 11 13 14 14 13 11 10 10 8 9 9 9 9
24 24 24 24 26 26 29 28 29 24 20 6 3 3 5 9 9 10 7 11 8 11 14 17 15 16 15 17 18 13 7 6 10 11 7 12 8 9 8 9 8 8 7 7 9 4 8 9 9 11 13 13 14 12 11 11 11 9 8 10 8 9 9 11 11 10 10 9 10 10 8 11 12 12 12 11 12 11 13 15 13 12 11 9 8 11 10 8
25 24 24 24 25 28 29 31 28 26 6 4 3 6 7 9 9 10 9 9 14 11 13 15 15 16 17 13 14 12 14 8 10 11 10 12 9 12 11 10 8 8 9 10 9 6 8 9 11 14 14 14 12 12 7 10 12 8 4 5 8 9 14 5 11 13 12 7 10 12 9 9 9 10 13 11 11 6 13 16 16 15 15 13 11 12 11 9
26 26 24 24 25 27 29 30 30 9 4 7 12 13 14 14 16 15 13 6 10 16 14 15 13 12 15 14 7 15 13 9 8 12 8 12 9 11 6 14 9 9 10 12 13 9 7 5 10 13 14 14 11 10 12 9 8 8 9 4 3 11 15 17 12 12 11 8 14 11 7 5 8 7 9 9 12 11 13 15 14 15 15 15 12 13 14 12
27 25 24 25 25 27 29 30 9 6 13 14 10 11 10 8 11 8 6 5 6 12 12 15 12 11 12 7 11 8 10 4 11 7 8 12 10 10 8 9 6 10 9 12 13 13 10 10 10 15 13 12 12 9 14 8 7 5 8 7 5 10 15 19 18 13 8 8 9 15 4 5 5 7 11 9 10 9 12 14 14 15 14 15 14 15 14 12
28 26 24 23 25 26 30 9 3 12 14 9 9 9 14 12 10 13 4 2 9 8 4 10 8 10 7 11 4 5 13 9 9 8 10 11 9 7 5 6 5 9 14 11 12 6 6 11 12 14 15 12 13 11 7 10 7 5 4 6 7 6 3 14 18 12 8 10 9 15 12 4 4 8 10 6 8 11 7 15 14 15 14 15 14 15 15 14
26 27 23 22 21 22 12 4 8 14 10 5 9 13 13 15 7 12 3 3 6 7 11 6 12 2 8 9 10 8 10 7 7 9 12 12 12 6 6 6 8 5 8 5 4 8 8 11 15 13 13 12 11 11 7 9 10 7 2 7 6 6 7 15 21 14 5 3 5 14 8 9 4 8 10 8 6 6 4 12 14 15 15 15 13 17 16 15
26 24 23 21 19 13 7 8 10 8 10 11 11 14 15 11 12 5 1 3 4 4 6 6 4 4 7 12 13 10 3 6 10 11 10 16 12 8 9 9 10 13 9 8 9 5 12 11 13 16 12 9 7 9 10 9 8 4 6 6 7 9 12 11 13 9 5 10 5 10 11 6 5 7 8 9 6 5 8 9 13 15 16 15 15 17 17 17
24 23 22 21 21 25 12 7 5 9 7 7 13 14 11 12 8 2 1 3 6 3 3 9 6 4 2 11 15 9 10 5 8 9 9 16 17 4 10 10 9 11 13 11 8 6 8 12 12 12 10 9 8 7 11 6 6 5 11 6 4 9 11 4 7 6 4 8 6 10 11 5 5 5 7 7 10 12 13 11 10 15 16 16 15 15 17 15
24 23 23 19 18 7 1 5 10 17 9 11 13 14 15 7 2 1 2 5 2 2 1 3 2 9 8 10 11 12 12 6 8 9 11 11 14 12 6 4 9 8 12 12 13 10 8 13 13 9 10 7 9 11 10 9 5 1 7 7 9 4 6 3 4 4 4 1 2 7 13 10 3 7 13 11 15 17 13 8 6 11 15 16 17 15 16 14
24 24 21 16 7 5 7 8 14 13 9 7 13 15 7 1 2 2 5 7 6 5 4 4 6 9 10 12 10 12 12 7 11 8 12 11 12 12 5 7 8 7 6 9 10 13 13 8 11 5 8 11 10 10 9 5 5 9 4 7 7 4 2 3 1 3 2 2 4 5 4 14 7 5 9 17 21 21 18 16 17 13 17 15 13 12 15 14
26 26 24 13 11 6 6 9 1 6 10 14 12 7 2 1 3 5 7 2 8 7 10 5 8 9 12 11 10 13 11 10 8 10 11 11 9 11 10 7 4 6 7 6 10 9 13 11 5 7 5 9 12 10 6 8 5 7 5 2 2 1 4 2 2 2 1 3 2 4 4 5 6 10 19 20 16 18 17 18 20 17 15 14 13 13 13 13
28 27 30 19 13 10 16 20 10 8 11 11 5 4 1 3 5 7 11 5 4 5 6 10 12 13 12 12 12 13 12 11 10 9 12 13 9 12 11 13 6 6 3 7 7 10 9 11 9 11 7 8 3 12 3 7 6 4 5 4 3 1 1 1 1 1 2 3 4 5 5 7 2 3 18 22 20 18 21 17 16 16 16 15 15 13 12 14
28 29 16 10 9 14 11 10 9 5 7 5 3 4 2 6 6 8 15 11 14 12 9 6 13 14 14 11 11 10 11 11 11 9 13 10 12 9 12 15 16 9 8 4 9 6 6 9 10 9 7 8 7 4 6 4 6 7 5 9 5 4 4 4 2 4 6 8 4 6 4 3 5 4 2 17 20 15 13 13 16 19 18 17 15 14 13 14
32 25 14 12 10 15 17 12 8 9 6 3 3 4 6 8 5 10 11 12 12 14 18 16 10 14 11 11 9 13 7 8 14 11 13 12 13 8 11 12 17 12 8 7 6 4 9 5 6 12 3 14 10 6 7 9 8 8 7 8 2 3 3 2 5 4 3 2 4 2 4 7 7 5 1 12 16 11 15 16 9 14 12 12 11 12 13 12
22 7 9 10 8 8 13 11 11 9 6 3 4 5 10 8 7 10 9 11 12 12 14 14 17 13 9 9 9 13 15 6 15 12 9 13 12 12 10 10 13 16 8 8 2 6 4 6 4 21 9 12 15 10 11 6 6 5 4 5 2 2 3 3 1 4 3 1 4 1 2 0 2 1 7 16 16 16 13 9 13 13 11 12 12 14 14 12
10 13 7 7 11 10 10 12 11 10 5 4 5 9 8 9 15 13 10 15 12 13 10 12 7 5 10 8 8 12 11 13 10 12 5 13 11 14 12 11 14 12 17 6 4 6 4 6 3 9 13 6 10 10 11 12 6 2 5 6 4 5 2 2 2 1 4 4 3 7 8 4 5 2 3 17 17 11 8 9 14 16 16 16 12 12 13 13
11 9 12 13 19 14 11 14 14 8 6 5 9 10 6 12 12 18 16 16 17 17 12 10 5 8 5 8 10 12 11 12 9 12 7 14 4 15 13 10 16 15 14 16 6 5 9 4 8 13 14 12 11 11 13 12 10 5 8 12 7 6 11 1 1 1 2 4 2 3 4 4 10 5 7 9 16 11 11 11 10 13 14 12 11 12 12 9
6 5 9 12 9 12 13 17 11 9 5 6 8 9 10 13 14 16 13 12 13 15 14 11 10 9 12 7 8 13 12 12 8 8 7 8 8 16 17 10 11 20 18 16 12 8 4 3 2 12 16 12 10 11 11 8 6 4 4 6 10 2 8 5 6 3 6 2 1 3 4 1 2 3 11 8 12 10 11 12 13 14 12 10 9 10 12 10
7 4 7 7 1 13 16 15 8 7 6 11 10 11 4 12 15 18 17 17 12 9 9 13 14 11 7 10 8 9 12 14 12 7 11 5 10 15 16 17 8 18 22 19 13 7 9 5 4 3 17 11 9 8 10 8 6 4 4 3 5 5 4 6 3 5 5 3 4 1 2 4 6 3 9 10 10 10 11 10 6 10 13 12 10 11 8 9
5 4 7 11 6 15 17 9 7 9 9 6 10 12 14 12 11 13 16 19 15 12 15 15 13 12 10 9 13 10 5 12 11 9 8 9 12 6 12 13 13 12 19 20 15 10 4 5 7 4 11 9 4 11 9 9 8 4 6 6 4 4 0 8 6 4 3 4 2 2 1 5 4 3 6 8 7 8 8 9 7 8 6 8 11 10 10 8
4 5 5 13 10 17 12 8 6 5 6 10 10 10 11 10 14 17 16 15 17 13 11 15 19 17 18 14 8 5 3 6 13 11 9 9 14 9 10 18 18 15 11 11 12 9 7 2 4 4 7 9 7 15 15 12 8 8 6 4 3 2 2 1 2 3 2 2 3 5 5 2 3 2 6 10 10 11 8 6 6 7 8 8 7 10 13 13
5 10 16 20 16 8 6 6 6 6 10 9 11 16 16 14 13 11 14 14 15 13 12 12 13 14 10 10 10 10 9 4 5 9 8 14 11 17 10 25 17 20 14 7 11 11 10 6 4 3 3 9 11 12 19 16 13 11 8 7 5 9 5 4 4 7 3 2 4 1 3 3 4 2 6 9 8 9 7 8 5 5 9 9 7 6 12 12
7 9 10 8 7 9 8 7 6 8 9 12 15 16 13 14 14 14 15 16 12 10 12 9 11 13 11 9 10 10 1 4 5 6 11 8 9 19 16 23 20 13 15 5 8 10 7 5 4 2 1 7 9 5 11 12 11 5 2 5 9 12 13 7 1 2 5 6 7 6 5 3 2 1 7 7 7 7 8 3 9 8 5 7 7 7 8 12
7 7 10 9 7 3 9 7 8 7 9 12 13 16 16 13 11 16 15 16 14 15 11 10 12 8 9 8 11 8 7 5 7 11 9 9 9 16 22 20 23 14 16 10 14 10 11 4 7 5 4 5 8 7 7 9 9 3 4 6 5 6 11 7 7 1 3 4 6 5 3 4 4 3 7 8 7 6 6 6 9 8 6 6 6 7 7 8
4 6 5 4 2 6 7 8 11 9 9 11 12 13 16 15 13 14 17 18 19 19 16 13 11 11 13 11 9 7 9 7 9 5 6 5 6 5 8 19 19 17 16 20 16 10 5 5 5 8 10 7 7 3 7 10 4 7 9 9 11 10 5 6 5 2 5 4 5 7 14 7 4 4 6 6 9 10 8 6 6 6 7 7 6 6 7 8
5 4 6 7 10 5 6 8 11 11 11 10 8 8 14 17 14 12 15 11 13 17 14 12 5 8 8 10 11 12 11 9 7 11 7 4 6 5 17 11 16 21 20 17 18 7 3 5 7 7 9 11 9 3 4 10 9 9 10 12 14 11 7 5 7 9 7 7 5 3 16 15 12 10 8 9 7 7 7 7 9 9 8 9 8 7 7 8
3 3 9 6 4 6 9 8 9 12 14 14 12 13 16 17 13 11 9 14 16 12 9 2 8 12 14 14 12 11 9 8 7 8 3 6 10 15 10 19 11 15 21 9 9 7 3 3 7 10 8 8 9 7 6 4 8 7 8 13 15 16 12 8 5 6 9 9 9 12 17 17 16 15 12 12 10 9 10 9 9 9 7 6 6 8 9 9
5 6 4 11 6 6 7 14 20 18 16 14 8 14 16 17 17 13 9 7 12 7 7 7 11 13 15 13 10 5 4 6 5 2 3 6 7 7 8 15 12 11 21 10 9 4 2 3 1 6 6 8 10 10 8 7 3 4 9 6 10 13 13 12 8 5 10 6 8 14 12 13 14 11 15 14 12 11 9 9 8 7 9 8 8 7 9 9
6 7 7 8 8 12 12 10 12 13 10 12 9 10 13 16 17 15 12 9 5 10 4 10 13 16 15 14 11 10 5 9 5 0 3 5 7 5 4 2 9 14 8 7 5 2 7 2 8 1 1 0 4 9 10 9 6 5 5 11 9 5 6 7 7 10 11 4 7 17 14 11 10 14 9 6 6 9 9 9 8 6 8 8 7 7 7 9
7 5 5 9 11 6 8 9 10 11 9 9 8 11 13 15 15 14 10 5 10 9 11 15 13 16 14 14 13 8 11 7 8 13 6 6 3 1 1 6 10 12 16 10 5 1 10 2 4 3 1 1 3 7 14 11 7 7 10 9 8 9 9 5 4 2 5 9 5 10 6 5 4 5 7 9 9 10 8 8 7 6 5 5 4 4 5 6
8 7 8 6 7 5 9 10 12 10 8 7 11 13 7 10 15 12 3 2 6 12 13 18 19 6 4 9 7 5 8 10 10 10 7 3 2 2 3 9 12 12 8 8 2 6 5 3 3 3 2 2 1 8 5 6 6 9 12 12 10 9 3 4 6 11 7 3 7 8 5 4 7 7 9 7 10 7 6 4 6 7 6 6 4 2 1 1
Wind_Direction
353 350 349 346 347 345 344 345 345 343 343 342 341 340 338 338 338 335 333 330 328 328 328 327 328 326 326 322 322 322 327 317 318 262 222 238 252 213 129 102 165 175 153 162 231 244 261 253 239 235 249 237 240 238 242 234 216 201 216 215 198 131 159 187 145 141 192 133 132 112 108 121 126 133 133 139 134 105 101 112 117 114 101 113 119 125 130 128
352 350 348 346 344 343 343 345 343 341 340 339 339 337 336 338 337 335 332 330 329 327 328 328 327 327 325 323 321 324 325 291 278 261 239 236 199 244 245 187 156 168 157 204 227 230 244 259 243 226 219 231 225 234 223 229 211 138 264 130 143 147 179 187 151 172 135 136 138 134 135 109 93 121 136 135 99 97 92 89 98 101 108 115 127 133 141 141
351 348 346 344 343 343 343 344 343 339 337 337 337 337 337 335 333 331 331 330 328 328 328 328 327 326 325 323 320 325 323 302 260 260 261 234 218 218 211 187 172 167 178 196 218 231 242 254 272 257 214 238 233 223 191 243 191 219 160 77 99 108 162 222 87 98 140 120 112 115 103 105 111 96 69 99 101 97 108 116 111 116 127 130 126 133 132 125
348 345 344 343 341 341 342 341 339 338 336 336 336 336 334 335 332 332 331 330 328 328 328 327 327 327 323 320 326 317 295 264 282 253 287 288 195 207 185 179 174 178 218 250 265 276 285 297 277 254 246 225 247 224 191 224 100 222 92 78 29 107 113 129 146 141 130 130 139 124 119 122 132 123 117 126 118 120 122 130 134 138 134 133 136 138 134 138
344 345 344 342 339 339 339 338 339 339 336 332 335 334 334 331 331 331 329 328 329 328 326 325 326 324 321 315 319 311 307 9 274 113 349 304 188 183 174 174 173 183 201 252 282 263 261 264 277 283 280 261 254 258 241 142 220 170 136 141 100 79 102 115 95 135 138 135 128 101 99 97 124 128 129 119 117 140 139 136 131 131 136 138 143 144 145 146
343 343 342 340 338 338 337 338 338 337 334 333 332 330 331 331 330 330 327 326 327 329 325 324 324 325 319 318 311 294 352 250 349 325 3 347 163 162 164 163 173 179 199 240 247 272 276 269 260 273 275 254 268 257 250 219 108 88 65 82 80 76 88 96 133 150 121 119 100 106 109 105 83 83 112 112 140 130 126 129 130 132 138 140 146 147 149 154
342 341 340 340 339 337 337 337 336 334 334 330 327 329 330 328 328 326 326 323 326 328 325 321 321 325 324 303 274 286 275 271 309 263 73 88 113 135 144 144 145 176 211 226 239 245 242 256 266 252 257 250 246 233 234 130 135 103 79 91 105 120 107 176 134 111 91 98 99 108 121 110 123 102 95 99 74 112 120 124 127 135 141 149 146 153 151 154
342 342 340 338 336 336 336 334 332 329 328 329 326 326 327 326 325 324 326 324 324 328 326 323 328 329 341 320 260 269 209 252 248 259 124 124 119 122 130 125 155 175 204 225 228 228 243 259 245 242 248 244 236 234 233 141 151 98 140 129 90 80 82 71 76 82 87 86 96 87 88 90 109 115 111 87 105 114 118 125 132 138 144 148 152 150 150 154
342 341 339 335 334 334 332 329 327 327 327 328 324 324 323 323 322 322 324 321 323 327 322 317 321 330 331 308 283 313 261 240 240 137 154 140 139 139 152 150 182 181 209 231 239 240 246 244 245 235 241 254 271 266 110 67 105 116 95 105 106 119 102 96 120 109 92 87 84 84 87 94 101 125 107 124 110 116 121 130 134 138 148 155 153 142 141 164
342 340 336 335 333 331 330 327 327 327 326 326 323 322 321 320 319 318 319 317 316 323 314 314 321 335 329 292 268 255 258 237 169 154 166 152 140 147 172 187 168 195 209 232 237 234 234 239 245 241 253 268 263 262 153 147 111 110 127 107 146 121 116 151 97 102 104 101 103 109 108 101 119 121 104 108 118 122 129 129 138 146 151 157 143 141 154 169
340 337 336 335 333 330 328 327 327 326 324 324 322 320 317 316 316 314 316 312 308 313 315 312 313 334 322 268 244 233 272 92 141 152 165 155 148 156 183 207 180 198 212 235 233 232 247 261 272 293 270 262 253 185 46 120 118 127 119 138 91 113 102 94 88 103 117 116 121 125 130 132 94 100 115 123 129 132 131 139 146 147 153 144 134 138 174 162
339 337 337 334 332 329 328 327 325 323 323 322 320 316 315 316 312 312 312 310 300 300 304 300 322 304 271 275 244 233 252 16 110 173 173 162 173 187 181 201 183 205 204 230 238 237 242 250 259 260 267 237 241 165 146 135 144 128 135 116 148 132 106 123 138 148 125 133 138 139 133 122 144 121 141 133 140 137 140 148 147 149 149 130 131 154 175 167
340 337 335 333 330 330 326 326 324 322 322 319 317 314 313 312 309 306 307 303 294 318 279 292 282 218 328 279 236 240 259 279 272 228 179 164 177 192 192 210 201 205 217 232 248 234 236 247 249 259 260 248 344 126 203 145 139 142 126 119 168 132 123 177 141 135 152 135 139 154 102 130 116 134 134 150 145 143 148 156 145 151 129 128 134 164 185 175
338 337 334 331 330 328 327 325 323 322 320 319 316 313 310 308 304 300 296 283 284 271 267 272 260 244 282 250 279 260 248 244 265 270 178 176 181 188 201 226 220 202 224 241 250 255 249 240 251 278 295 270 223 201 341 47 112 139 121 107 153 126 173 144 149 151 142 158 155 167 117 124 143 143 147 158 148 148 153 152 149 144 129 130 136 162 187 168
337 335 333 330 329 327 326 323 323 321 319 319 316 312 308 305 298 292 284 273 261 250 244 226 231 226 220 267 253 255 246 262 251 255 163 170 188 175 206 222 234 215 220 234 251 260 263 267 282 274 283 312 291 237 228 128 143 141 112 164 139 135 173 154 150 179 143 185 169 144 111 141 147 150 155 153 154 147 158 154 154 144 135 137 140 169 182 161
335 332 331 330 327 327 325 324 322 321 320 319 318 311 305 296 288 285 269 259 275 309 209 248 210 230 320 288 277 286 215 207 239 245 200 175 180 201 190 211 229 232 220 230 247 260 260 291 219 239 288 301 295 216 106 116 172 137 140 127 119 87 270 167 149 198 143 151 143 120 134 137 150 152 148 177 160 157 163 153 158 144 144 141 148 178 159 159
334 331 331 328 328 325 325 322 321 321 320 318 318 310 298 288 271 269 266 233 244 205 208 263 112 159 287 253 348 268 203 199 223 224 222 204 172 207 174 205 225 231 218 243 235 252 273 289 284 306 285 276 269 196 156 158 148 121 147 144 148 174 183 282 149 189 127 138 151 206 144 150 147 149 149 173 166 154 168 160 168 149 149 147 154 181 153 160
333 332 330 327 326 325 322 321 321 322 321 317 316 301 297 300 280 287 234 240 234 202 228 261 268 275 257 262 282 226 212 206 195 224 219 178 198 197 179 198 217 230 215 226 249 252 229 229 199 217 267 250 254 241 160 181 168 145 183 155 163 169 183 131 191 168 159 170 152 150 104 130 148 151 157 166 159 165 164 178 163 145 144 151 160 173 153 158
332 331 328 327 325 324 321 320 320 324 322 317 306 290 279 60 111 215 238 140 171 92 7 185 183 149 254 191 223 257 236 182 187 212 192 177 202 210 181 208 212 210 226 222 191 229 255 321 158 240 244 250 249 232 182 167 154 157 182 173 163 170 182 172 195 201 176 149 147 141 144 144 155 161 165 166 160 176 165 180 151 142 146 150 162 158 155 161
334 329 328 326 325 324 322 319 319 322 330 329 344 341 205 314 100 128 261 229 232 228 268 232 198 242 281 288 279 212 246 155 194 211 167 195 183 208 188 192 201 220 219 204 200 217 172 201 213 213 238 247 252 253 235 183 179 168 175 180 181 171 182 178 175 199 161 182 169 153 146 154 156 165 169 168 166 168 167 170 159 151 152 157 167 165 161 159
329 329 327 327 326 324 321 320 316 318 324 306 299 296 320 309 321 324 274 230 216 238 244 249 209 220 239 265 276 219 221 172 214 177 195 174 206 191 182 184 196 209 220 204 222 182 214 213 227 222 233 244 254 254 249 252 210 182 179 184 185 182 176 177 170 162 152 155 149 134 172 155 156 168 169 170 170 168 167 165 163 159 160 164 174 169 164 162
326 327 328 327 327 325 322 318 316 315 317 278 246 253 263 263 253 262 278 296 281 252 246 247 248 252 256 250 254 250 231 169 206 170 196 172 194 202 145 200 193 208 207 219 230 196 207 218 218 229 231 237 248 245 238 253 257 249 200 197 175 192 145 154 161 174 174 138 164 153 184 155 162 168 169 176 176 174 168 164 167 161 165 171 180 166 160 167
325 325 327 328 327 326 323 316 314 317 313 170 211 262 254 261 287 276 281 278 277 276 267 257 249 248 253 249 252 239 199 174 199 180 181 188 162 216 152 195 197 212 195 219 218 201 204 224 217 217 232 235 237 249 243 241 254 258 273 192 182 159 136 180 180 185 181 159 174 168 157 152 158 169 172 172 178 171 165 165 163 164 169 175 178 165 166 172
326 326 325 329 327 326 323 314 311 297 180 261 276 257 271 294 286 286 299 291 302 289 263 265 265 242 241 239 236 233 188 165 205 181 180 185 194 195 194 184 202 214 206 206 226 223 211 200 227 232 227 233 233 213 238 244 250 255 249 235 226 173 164 167 172 188 152 162 168 155 124 160 160 172 171 176 179 167 161 168 159 167 170 175 168 168 169 171
328 326 326 327 331 326 321 316 316 1 320 304 265 268 271 312 339 320 299 298 256 261 257 249 238 248 246 234 254 208 156 194 197 179 181 190 192 180 217 175 204 212 216 199 222 237 212 209 206 235 240 239 240 225 222 222 248 261 246 244 210 200 169 170 153 169 151 183 185 147 107 210 219 181 172 182 179 180 166 169 162 167 169 169 169 172 173 178
327 326 326 326 329 334 313 310 33 344 321 283 263 328 328 331 336 331 323 288 279 273 229 231 136 221 222 224 198 192 146 221 185 186 181 191 216 214 174 202 196 192 219 201 214 227 226 199 222 218 231 232 242 242 216 213 261 251 250 242 265 270 330 143 155 158 172 188 187 159 146 206 245 194 185 176 179 183 179 170 166 167 170 173 168 171 176 179
323 324 323 325 329 343 358 342 352 324 321 310 341 331 331 321 343 335 309 216 273 214 210 149 164 181 200 186 197 143 200 203 182 203 181 167 211 213 203 211 170 245 204 216 186 221 233 202 210 231 227 224 217 240 236 196 208 249 231 208 236 281 272 169 167 172 163 170 191 169 149 145 206 228 189 181 163 180 194 179 171 169 175 175 171 171 178 176
321 320 320 322 322 335 235 289 317 305 249 263 314 330 320 316 319 300 124 328 261 193 165 151 235 157 207 158 198 181 245 133 188 198 190 156 212 198 236 193 191 206 224 207 215 172 217 231 214 209 230 238 222 210 234 211 197 212 263 199 216 237 242 185 177 166 161 171 229 194 134 90 196 217 192 161 162 210 214 206 184 173 175 176 175 171 177 172
318 317 317 320 321 303 271 209 264 259 252 324 321 312 308 302 309 341 295 266 284 323 336 168 332 147 215 173 191 185 202 202 215 157 176 160 195 214 215 230 214 201 224 227 229 190 207 237 224 219 193 230 248 232 233 215 190 214 255 273 268 221 251 81 168 161 183 162 226 204 175 152 200 179 165 188 186 200 210 204 198 177 178 176 178 173 175 169
315 314 315 320 321 285 327 211 231 244 281 307 300 304 300 304 327 253 211 268 239 265 221 39 251 169 197 184 187 176 204 203 229 157 175 170 188 216 264 241 245 218 215 225 242 229 213 205 230 221 198 201 227 239 239 212 225 235 223 266 281 214 213 205 153 112 50 34 254 215 180 173 176 199 175 170 202 201 194 197 192 186 181 179 181 174 174 166
312 310 308 315 291 308 318 270 246 246 246 287 320 307 290 249 203 204 233 258 316 284 144 150 155 161 181 198 182 174 208 213 213 178 175 166 183 204 219 256 243 256 242 218 228 241 244 208 214 221 201 190 224 233 203 211 188 223 195 213 233 298 25 33 341 80 123 249 259 263 226 182 205 232 211 198 200 195 182 186 194 184 186 184 179 175 169 166
311 308 302 296 255 255 223 246 300 20 351 334 326 315 310 263 201 213 238 114 257 155 191 175 179 175 190 193 205 169 194 214 237 193 182 171 176 195 200 222 180 210 245 205 214 234 246 239 210 217 222 211 192 241 195 189 231 234 232 290 135 239 187 308 30 326 235 198 239 299 311 295 240 189 197 211 208 194 185 186 189 187 183 180 179 178 166 165
311 306 301 283 249 215 229 243 289 320 326 310 296 264 218 228 237 199 248 253 267 191 160 172 168 187 191 182 204 178 187 218 213 233 176 167 197 193 206 220 211 208 196 212 225 193 243 254 204 199 216 227 194 196 168 187 232 217 206 216 148 111 101 176 258 210 284 299 239 252 279 255 245 250 189 196 205 191 190 187 182 186 187 176 178 178 163 165
310 307 301 258 216 213 222 222 240 265 268 286 276 261 220 237 239 235 243 232 254 274 304 217 165 188 188 201 187 188 181 214 205 217 181 164 194 189 205 217 229 211 238 186 231 191 195 220 245 187 206 173 224 179 165 172 196 227 186 206 158 157 155 175 170 184 208 225 246 223 239 209 271 259 244 198 198 185 177 179 187 190 187 180 175 174 165 165
310 298 261 265 227 231 228 218 212 196 227 254 228 221 219 230 252 242 245 245 249 263 263 278 247 175 190 204 192 198 206 184 224 212 186 166 186 208 190 211 218 235 208 237 222 237 219 235 212 234 191 162 206 210 212 184 215 209 199 189 211 234 138 181 198 183 216 232 258 267 228 188 210 233 64 158 169 145 183 193 169 180 175 170 170 172 174 169
310 298 284 266 245 230 189 201 188 197 202 199 208 208 220 214 226 219 250 254 261 269 278 261 250 185 184 192 195 214 182 240 193 236 187 178 176 201 190 203 218 215 220 217 150 220 208 227 221 196 210 170 189 207 222 194 198 228 91 174 204 207 121 188 216 201 210 300 253 234 299 356 342 338 111 124 142 163 175 157 163 175 158 156 170 179 180 173
309 311 299 251 241 227 174 168 167 177 193 206 223 231 222 230 242 258 255 251 261 274 301 325 295 249 171 186 186 211 178 210 193 206 215 174 188 195 200 202 213 214 231 215 204 244 160 225 221 149 195 222 194 203 230 221 224 150 167 210 167 262 247 133 206 189 191 179 248 197 226 230 142 260 253 134 149 169 138 158 156 162 163 171 174 177 178 174
313 286 268 258 241 214 167 156 155 172 170 194 229 246 225 243 231 247 264 282 290 288 291 276 312 324 201 184 186 199 171 194 169 198 236 168 234 173 200 211 190 222 223 227 238 204 223 228 215 178 187 200 184 198 228 245 242 171 191 156 170 184 250 164 101 265 194 220 250 268 215 229 182 213 154 158 142 146 128 126 140 154 159 163 167 173 173 151
264 281 298 259 229 166 166 150 160 158 173 205 228 240 233 247 252 249 262 277 290 295 278 271 280 277 270 216 190 195 186 189 179 208 212 168 214 172 200 194 196 200 223 227 225 252 278 244 268 191 190 176 182 177 221 226 260 247 146 181 174 145 195 187 179 197 124 195 62 287 293 264 293 231 157 168 143 140 124 120 144 153 149 152 161 160 160 151
305 297 271 266 135 144 141 154 154 175 193 214 210 233 237 238 244 257 265 272 280 277 281 295 285 288 280 299 250 195 187 192 182 209 204 148 209 170 195 181 218 187 211 225 230 213 232 241 249 234 178 160 204 173 197 186 213 229 229 186 178 215 167 184 192 186 157 177 158 199 347 308 287 275 143 144 138 137 134 135 141 153 155 159 158 163 160 161
294 252 275 280 146 130 135 160 176 196 214 242 244 243 239 245 254 249 252 251 257 249 265 273 281 277 286 280 267 248 189 193 189 218 182 176 186 183 198 189 204 213 197 218 227 213 237 193 219 194 188 186 205 174 185 198 195 203 189 207 174 191 324 168 259 195 208 109 185 130 215 264 311 3 90 104 112 101 112 123 124 131 138 146 158 162 162 166
308 291 232 10 71 139 142 174 223 203 233 228 222 229 248 250 253 260 269 272 269 269 238 251 251 256 259 265 314 271 333 215 191 208 177 205 178 222 174 204 187 216 200 208 212 214 226 227 201 200 198 190 200 171 187 201 210 216 199 241 188 211 181 138 163 277 113 205 158 144 116 288 275 72 87 99 100 106 106 114 136 127 125 146 155 147 169 171
282 264 292 302 296 209 156 216 206 218 228 243 252 249 252 254 257 261 264 257 264 259 253 240 254 267 255 284 298 302 300 275 306 214 209 189 201 194 185 196 193 201 221 201 198 212 214 230 218 235 212 193 206 182 184 190 199 216 204 211 198 235 219 200 181 180 182 173 177 54 96 242 295 309 98 113 120 117 111 108 90 129 136 142 154 147 168 176
297 288 307 278 285 257 230 221 220 220 232 240 244 256 250 251 250 249 246 256 261 258 254 254 258 247 266 232 240 256 343 324 264 278 231 218 215 183 197 194 195 203 201 154 207 169 237 199 186 49 319 173 213 173 191 187 188 206 192 207 194 205 223 227 89 113 169 197 166 136 143 229 256 174 112 102 91 102 112 94 109 123 128 128 126 140 153 178
285 258 232 277 289 252 238 230 246 258 250 245 242 244 247 248 246 250 260 261 261 260 264 261 271 286 236 240 267 284 299 273 303 290 290 260 253 181 197 199 188 214 199 178 191 148 210 182 181 190 193 176 185 207 197 193 193 177 233 241 255 222 201 190 244 133 197 248 153 108 135 234 223 145 131 130 112 114 144 150 137 148 147 139 151 133 153 151
319 324 301 284 309 256 248 259 256 256 264 266 260 248 245 252 244 240 242 253 257 265 269 283 283 312 302 278 245 259 255 234 251 295 303 325 253 222 217 196 189 205 193 204 186 152 194 180 185 174 179 189 211 202 187 151 174 184 197 229 250 255 249 179 149 129 186 225 176 182 149 191 202 201 170 164 148 150 163 153 128 133 131 133 143 150 157 161
315 251 332 332 326 324 291 232 238 246 260 273 271 284 266 244 243 253 231 251 237 248 253 244 290 264 276 289 283 267 263 271 248 268 277 328 327 298 335 261 196 188 207 207 195 192 154 181 172 166 179 190 209 232 294 170 167 190 189 207 232 251 242 228 162 208 170 117 210 233 156 158 189 191 182 172 160 152 149 148 153 164 163 159 157 157 159 163
254 323 345 8 320 296 326 319 323 308 287 264 257 263 273 280 267 252 226 238 254 244 251 23 273 279 279 276 306 298 285 268 258 251 313 27 2 352 347 330 283 200 196 205 172 195 129 167 180 167 184 215 205 237 220 211 220 208 204 199 206 229 243 236 193 205 153 155 192 200 169 171 186 185 180 175 169 166 172 163 160 165 165 159 147 151 163 168
332 337 300 13 337 305 308 290 287 281 292 286 272 255 254 256 260 258 262 297 269 215 149 241 256 258 257 269 266 274 324 300 269 277 76 358 16 3 355 328 354 333 193 192 173 168 120 168 180 199 209 209 254 254 261 253 241 294 300 269 201 203 219 234 229 188 165 185 188 176 190 173 175 187 183 184 171 164 152 145 137 133 143 160 168 168 172 169
14 340 328 325 281 282 284 288 296 300 293 299 285 265 262 253 260 266 259 253 285 285 242 247 250 251 261 259 265 274 319 355 343 228 12 30 25 31 333 266 312 322 318 214 176 158 168 253 205 159 55 255 264 255 252 249 252 268 278 280 272 243 243 228 230 236 245 220 148 163 184 197 204 182 173 161 151 124 134 141 153 145 134 140 146 166 188 187
321 324 333 316 314 305 311 312 307 299 299 293 290 282 260 258 256 261 268 299 306 297 295 274 251 253 248 261 276 303 3 348 357 335 9 36 45 22 68 302 319 312 315 297 194 109 164 239 189 166 117 308 282 250 227 237 254 261 265 254 253 250 243 248 248 211 197 226 179 146 177 198 212 161 138 142 138 137 137 135 135 144 135 136 157 184 184 190
317 331 322 310 289 301 311 298 290 297 289 311 309 295 321 313 316 322 337 350 318 305 298 301 274 278 275 261 263 10 343 0 345 334 328 308 265 310 320 294 308 306 293 300 139 133 169 116 133 101 141 239 267 301 282 210 216 239 243 253 263 273 356 354 331 315 270 183 135 161 196 205 160 142 113 120 123 120 114 114 88 77 87 96 103 109 107 162